Tracking 31027 objects as of 19-Jul-2025
HD Live streaming from Space Station
objects crossing your sky now

GEO IK

Track GEO IK now!
10-day predictions
GEO IK is classified as:


NORAD ID: 23411
Int'l Code: 1994-078A
Perigee: 1,487.9 km
Apogee: 1,532.3 km
Inclination: 73.6 °
Period: 116.0 minutes
Semi major axis: 7881 km
RCS: 11.135 m2 (large)
Launch date: November 29, 1994
Source: Commonwealth of Independent States (former USSR) (CIS)
Launch site: PLESETSK MISSILE AND SPACE COMPLEX (PKMTR)
Your satellite tracking list
STARLINK-6351
Track 1 satellite(s)




NASA's NSSDC Master Catalog

Two Line Element Set (TLE):
1 23411U 94078A   25199.52086403 -.00000021  00000-0 -30226-4 0  9995
2 23411  73.6119 252.4486 0028223 109.9518 359.3909 12.40858836387675
Source of the keplerian elements: AFSPC